Regional Weather Roundup
Issued by NWS Grand Forks, ND

Home | Current Version | Previous Version | Graphics & Text | Print | Product List | Glossary On
Versions: 1 2 3 4 5 6 7 8 9 10 11 12 13 14 15 16 17 18 19 20 21 22 23 24 25 26 27 28 29 30 31 32 33 34 35 36 37 38 39 40 41 42 43 44 45 46 47 48 49 50
000
ASUS43 KFGF 102231
RWRFGF
PRAIRIE TO PINES  WEATHER ROUNDUP
NATIONAL WEATHER SERVICE EASTERN NORTH DAKOTA/GRAND FORKS ND
400 PM CST SUN DEC 10 2017

 **SATELLITE DATA USED TO AUGMENT SKY COVER AT AUTOMATED STATIONS**
 *****  WEATHER ACROSS EASTERN NORTH DAKOTA  *****

CITY           SKY/WX    TMP DP  RH WIND       PRES   REMARKS
GRAND FORKS    MOCLDY    26  21  81 S5        30.01F WCI  20
GRAND FRKS AFB CLOUDY    26  20  78 S7        30.01S WCI  19
GRAND FRKS NWS   N/A     25 N/A N/A W3          N/A
DEVILS LAKE    CLOUDY    33  28  81 SW3       29.96F
FARGO          CLOUDY    27  21  78 CALM      30.03F
WAHPETON ARPT  CLOUDY    30  21  69 CALM      30.04S
$$

 ***** WEATHER ACROSS CENTRAL AND WESTERN NORTH DAKOTA  *****

CITY           SKY/WX    TMP DP  RH WIND       PRES   REMARKS
BISMARCK       FAIR      47  27  45 W12       30.01F
MINOT          CLOUDY    44  25  47 W16       29.95F
JAMESTOWN      CLOUDY    37  29  72 NW7       29.97F
MINOT AFB      CLOUDY    43  25  50 NW15      29.94F
GARRISON         N/A     44  22  41 W13       29.98F
WILLISTON      FAIR      45  22  40 W14       30.05R
DICKINSON      FAIR      47  21  35 W15       30.02F
HETTINGER      FAIR      51  13  21 W23       30.07S
$$

 *****  OTHER AIRPORT OBSERVATIONS IN OUR AREA  *****

CITY           SKY/WX    TMP DP  RH WIND       PRES   REMARKS
WALHALLA       FAIR      27  27 100 SE7       29.96F WCI  19
GRAFTON AIRPOR NOT AVBL
VALLEY CITY AR NOT AVBL
CANDO          CLOUDY    36  27  69 SW7       29.94F
CAVALIER APRT  CLOUDY    25  19  80 S5        29.98F WCI  19
GWINNER          N/A     36  28  75 CALM      30.00S
SHEYENNE NWR     N/A     31  24  74 E2        29.95S
ROLLA          CLOUDY    36  27  69 SW8       29.90F
 ***** THE ABOVE OBSERVATIONS ARE NON NWS ARE NOT QUALITY
       CONTROLLED AND MAY MIS-REPORT RAIN FOR SNOW...
$$

  *****  WEATHER ACROSS NORTHERN MINNESOTA  *****

CITY           SKY/WX    TMP DP  RH WIND       PRES   REMARKS
FLAG ISLAND    FAIR      14  10  85 SE5       29.98F WCI   6
WARROAD        CLOUDY    18  12  79 S3        30.00F
ROSEAU         FAIR      18  14  86 S3        29.99F
HALLOCK        FAIR      23  19  86 S6        30.00S WCI  16
THF RVR FALLS  MOCLDY    19  16  88 CALM      30.01F
BAUDETTE       CLOUDY    17  12  80 CALM      30.00S
WASKISH        CLOUDY    19  16  86 CALM      30.00S
CROOKSTON      CLOUDY    21  19  93 S3        30.03F
STEPHEN NDAWN    N/A     21  18  86 S3          N/A
GREENBUSH NDAW   N/A     19  16  86 S1          N/A
$$
  *****  WEATHER ACROSS CENTRAL AND WEST MINNESOTA  *****

CITY           SKY/WX    TMP DP  RH WIND       PRES   REMARKS
FOSSTON        FAIR      18  12  79 CALM      30.01S
BEMIDJI        FAIR      19  14  81 CALM      29.99S
PARK RAPIDS    FAIR      25  18  74 W5        29.98S WCI  19
ELBOW LAKE     CLOUDY    28  22  79 NW6       30.03S HAZE    WCI  21
WADENA         FAIR      21  18  86 NW3       30.00S
DETROIT LAKES  FAIR      23  21  93 CALM      30.02S
MOORHEAD       CLOUDY    27  19  74 CALM      30.04S
FERGUS FALLS   CLOUDY    27  19  74 NW5       30.05F WCI  21
MORRIS MN      CLOUDY    30  21  69 NW7       30.02S WCI  23
STAPLES        FAIR      21  16  79 W5        30.01R WCI  15
$$
  *****  WEATHER ELSEWHERE ACROSS MINNESOTA  *****

CITY           SKY/WX    TMP DP  RH WIND       PRES   REMARKS
DULUTH         FAIR      17  10  74 NW6       29.99R WCI   9
INTRNTL FALLS  FAIR      14   7  73 CALM      30.01R
ELY            FAIR      12   7  79 CALM      29.99R
CLOQUET        CLOUDY    21  12  68 N8        30.01R WCI  12
WHEATON        NOT AVBL
BRAINERD       FAIR      28  17  63 W5        30.01R WCI  23
HIBBING        LGT SNOW  15  11  83 NW5       30.00R FOG     WCI   8
ALEXANDRIA     FAIR      28  20  71 NW6       30.01R WCI  22
SAINT CLOUD    FAIR      28  20  71 NW6       30.03R WCI  22
MINNEAPOLIS    FAIR      29  22  75 NW5       30.03R WCI  24
$$

  *****  WEATHER ACROSS SOUTH DAKOTA  *****

CITY           SKY/WX    TMP DP  RH WIND       PRES   REMARKS
SIOUX FALLS    FAIR      41  30  65 W10       30.06R
BROOKINGS      FAIR      37  28  70 W9        30.04R
WATERTOWN      FAIR      37  29  72 W7        30.02R
HURON          FAIR      44  30  57 NW7       30.05S
SISSETON         N/A     37  26  64 CALM      30.01F
ABERDEEN       FAIR      43  26  51 NW7       30.03S
MITCHELL       FAIR      46  31  55 NW6       30.07S
PIERRE         FAIR      56  22  26 NW12      30.05S
MOBRIDGE       FAIR      47  28  47 NW8       30.01F
RAPID CITY     FAIR      63   4   9 N15       30.14F
$$

  *****  SOME WEATHER IN NEARBY STATES *****

CITY           SKY/WX    TMP DP  RH WIND       PRES   REMARKS
GLASGOW MT     FAIR      44  15  31 CALM      30.10F
GREAT FALLS MT FAIR      51   9  18 SW21G28   30.29F
CHEYENNE WY    FAIR      54  -4   9 W12G22    30.34F
SCOTTSBLUFF NE FAIR      60   2   9 W9        30.27F
OMAHA NE       FAIR      52  25  35 NW13      30.10R
DES MOINES IA  FAIR      46  25  43 NW12      30.06R
DAVENPORT IA   FAIR      35  22  58 N13       30.05R
CHICAGO IL     MOCLDY    31  20  63 NW10      29.96R WCI  22
EAU CLAIRE WI  CLOUDY    26  18  71 NW3       30.01R
LA CROSSE WI   CLOUDY    29  20  69 NW9       30.03R WCI  20
$$

  *****  SOME NATIONAL WEATHER *****

CITY           SKY/WX    TMP DP  RH WIND       PRES   REMARKS
LA GUARDIA NY  MOCLDY    39  22  50 W9G31     29.96R
RALEIGH NC     FAIR      40  23  50 W3        30.14R
ATLANTA GA     FAIR      42  26  53 W6        30.21F
NEW ORLEANS LA FAIR      59  37  44 N3        30.34R
OKLAHOMA CITY  FAIR      67  11  11 NW12      30.26R
ALBUQUERQUE NM FAIR      53   2  12 CALM      30.44F
SALT LAKE CITY FAIR      39  24  55 NW6       30.59F
LOS ANGELES CA PTSUNNY   83  13   7 CALM      30.08F
BOISE ID       CLOUDY    27  20  75 CALM      30.68F
SEATTLE WA     FAIR      48  28  46 N5        30.36F
$$

*** WEATHER ACROSS MANITOBA...SASKATCHEWAN AND ONTARIO ***
                ***ONTARIO***

CITY           SKY/WX    TMP DP  RH WIND       PRES   REMARKS
GERALDTON      PTCLDY    -8 -13  77 W5        29.96R WCI -19
THUNDER BAY    MOCLDY    10   1  67 NW6       30.03R WCI   1
SIOUX LOOKOUT  PTCLDY    -6 -11  77 S3        30.00S
TORONTO        CLOUDY    28  19  69 W15G21    29.82R WCI  17
BIG TROUT LK   CLOUDY    -6 -11  77 W6        29.90F WCI -18
PICKLE LAKE    CRYSTALS  -6 -11  77 SW6       29.94F WCI -18
DRYDEN         CLEAR      3  -2  78 E2        29.98R
KENORA         PTCLDY    12   7  79 S6        29.97F WCI   3
$$
                *** MANITOBA***

CITY           SKY/WX    TMP DP  RH WIND       PRES   REMARKS
BRANDON        CLOUDY    28  23  80 S3        29.89F
DAUPHIN        CLOUDY    25  21  86 SE3       29.85F
ISLAND LAKE    NOT AVBL
PILOT MOUND      N/A     30  25  80 S6          N/A  WCI  24
THE PAS        CLOUDY    18  12  79 S7        29.77F WCI   8
THOMPSON       LGT SNOW   1  -4  78 S2        29.82F
WINNIPEG       MOCLDY    21  16  79 S8        29.97F WCI  12
LYNN LAKE      FOG        9   7  92 NE3       29.74S VSB 5/8
CHURCHILL      LGT SNOW   0  -2  92 W5        29.89S WCI -10
GILLAM         FLURRIES  -2  -8  78 W6        29.88F WCI -14
$$
                ***SASKATCHEWAN***

CITY           SKY/WX    TMP DP  RH WIND       PRES   REMARKS
ESTEVAN        LGT RAIN  37  28  70 W8        29.96F
KINDERSLEY     PTCLDY    41  27  56 W22G29    30.04R
LLOYDMINSTER   MOCLDY    41  28  60 W28G37    29.92R
PRINCE ALBERT  MOCLDY    37  30  75 W6        29.78F
REGINA         MOCLDY    36  28  75 W9        29.93F
YORKTON        LGT RAIN  36  30  80 SW8       29.82F
N. BATTLEFORD  CLEAR     43  27  52 W22G29    29.89F
LA RONGE       SNOW      28  28 100 CALM      29.72R VSB 1/2
SASKATOON      PTCLDY    39  30  70 W17G23    29.89F
SWIFT CURRENT  CLEAR     41  21  45 SW18      30.03S
$$
NOTE: THESE ARE AUTOMATED STATIONS WITH LIMITED QUALITY CONTROL
      "FAIR" INDICATES FEW OR NO CLOUDS BELOW 12,000 FEET WITH NO
      SIGNIFICANT WEATHER AND/OR OBSTRUCTIONS TO VISIBILITY.
      SKY/WX - SKY CONDITION AND SIGNIFICANT WEATHER.
      TMP - AIR TEMPERATURE.    DP   - DEWPOINT TEMPERATURE.
      RH  - RELATIVE HUMIDITY.  PRES - PRESSURE.
      HX  - HEAT INDEX.         WCI  - WIND CHILL INDEX.
$




USA.gov is the U.S. government's official web portal to all federal, state and local government web resources and services.